This is the latest recevied weather packets stored in our database for station/object N2QKV-13. If no packets are shown the sender has not sent any weather packets the latest 10 day(s).
| Time | Temp. | Humidity | Pressure | Rain* | Wind** | Luminosity | Snow |
|---|---|---|---|---|---|---|---|
| 1778177703 | 16.67° C | 52% | 1008.7 hPa | 0 mm | - | - | - |
| 1778177404 | 16.67° C | 52% | 1008.8 hPa | 0 mm | - | - | - |
| 1778177104 | 16.67° C | 50% | 1009 hPa | 0 mm | - | - | - |
| 1778176804 | 16.67° C | 53% | 1009 hPa | 0 mm | - | - | - |
| 1778176504 | 16.67° C | 53% | 1008.9 hPa | 0 mm | - | - | - |
| 1778176204 | 16.11° C | 53% | 1009 hPa | 0 mm | - | - | - |
| 1778175904 | 16.67° C | 55% | 1009.2 hPa | 0 mm | - | - | - |
| 1778175603 | 16.11° C | 54% | 1009.2 hPa | 0 mm | - | - | - |
| 1778175303 | 16.11° C | 53% | 1009.6 hPa | 0 mm | - | - | - |
| 1778175004 | 16.67° C | 55% | 1009.6 hPa | 0 mm | - | - | - |
| 1778174704 | 16.67° C | 54% | 1009.6 hPa | 0 mm | - | - | - |
| 1778174404 | 16.67° C | 56% | 1009.7 hPa | 0 mm | - | - | - |
| 1778174104 | 17.22° C | 52% | 1009.7 hPa | 0 mm | - | - | - |
| 1778173804 | 17.22° C | 47% | 1009.7 hPa | 0 mm | - | - | - |
| 1778173504 | 17.78° C | 45% | 1009.6 hPa | 0 mm | - | - | - |
| 1778173204 | 17.22° C | 47% | 1009.7 hPa | 0 mm | - | - | - |
| 1778172904 | 17.22° C | 48% | 1009.6 hPa | 0 mm | - | - | - |
| 1778172603 | 17.78° C | 49% | 1009.6 hPa | 0 mm | - | - | - |
| 1778172304 | 17.78° C | 49% | 1009.8 hPa | 0 mm | - | - | - |
| 1778172004 | 17.78° C | 45% | 1009.9 hPa | 0 mm | - | - | - |
| 1778171704 | 17.22° C | 49% | 1009.9 hPa | 0 mm | - | - | - |
| 1778171403 | 17.22° C | 46% | 1010 hPa | 0 mm | - | - | - |
| 1778171103 | 17.22° C | 50% | 1009.9 hPa | 0 mm | - | - | - |
| 1778170803 | 17.22° C | 52% | 1010 hPa | 0 mm | - | - | - |
| 1778170504 | 17.22° C | 53% | 1010.1 hPa | 0 mm | - | - | - |
* Rain latest hour (hover to see other rain measurements)
** Current wind speed in m/s (hover to see current wind gust speed)